| time (UTC) | temp F | wind direction | speed MPH | gust MPH | rain 1hr in | rain 24hr in | rain mn in | humidity % | barometer mb |
| 20260831113528 | 63 | 245 | 13.0 | 24.0 | 1.18 | 3.27 | 0.39 | 88 | 1009.2 |
| 20260831113017 | 63 | 281 | 13.0 | 23.0 | 1.34 | 3.27 | 0.39 | 89 | 1009.2 |
| 20260831112526 | 63 | 230 | 11.0 | 18.0 | 1.34 | 3.27 | 0.39 | 90 | 1009.1 |
| 20260831112055 | 63 | 242 | 10.0 | 20.0 | 1.34 | 3.27 | 0.39 | 90 | 1009.1 |
| 20260831111523 | 63 | 234 | 7.0 | 19.0 | 1.34 | 3.27 | 0.39 | 91 | 1008.9 |
| 20260831111028 | 62 | 248 | 10.0 | 19.0 | 1.38 | 3.27 | 0.39 | 89 | 1008.9 |
| 20260831110537 | 62 | 228 | 11.0 | 14.0 | 1.30 | 3.19 | 0.38 | 89 | 1009.0 |
| 20260831110014 | 62 | 268 | 4.0 | 9.0 | 0.67 | 2.56 | 0.25 | 89 | 1008.8 |
| 20260831105543 | 62 | 238 | 4.0 | 13.0 | 0.71 | 2.56 | 0.25 | 88 | 1008.8 |
| 20260831105028 | 62 | 244 | 6.0 | 16.0 | 0.71 | 2.56 | 0.25 | 87 | 1008.9 |
| 20260831104515 | 62 | 248 | 8.0 | 16.0 | 0.51 | 2.36 | 0.21 | 86 | 1009.0 |
| 20260831104021 | 63 | 244 | 9.0 | 17.0 | 0.43 | 2.28 | 0.20 | 85 | 1008.9 |
| 20260831103527 | 63 | 257 | 8.0 | 17.0 | 0.20 | 2.05 | 0.15 | 84 | 1008.9 |
| 20260831103016 | 63 | 251 | 7.0 | 19.0 | 0.08 | 1.93 | 0.13 | 83 | 1008.7 |
| 20260831102522 | 63 | 257 | 9.0 | 20.0 | 0.08 | 1.93 | 0.13 | 82 | 1008.6 |
| 20260831102031 | 64 | 257 | 10.0 | 20.0 | 0.08 | 1.93 | 0.13 | 81 | 1008.6 |
| 20260831101537 | 64 | 194 | 8.0 | 21.0 | 0.04 | 1.89 | 0.12 | 80 | 1008.5 |
| 20260831101016 | 64 | 208 | 12.0 | 21.0 | 0.04 | 1.89 | 0.12 | 80 | 1008.4 |
| 20260831100522 | 64 | 277 | 10.0 | 21.0 | 0.04 | 1.89 | 0.12 | 78 | 1008.3 |
| 20260831100022 | 65 | 142 | 9.0 | 17.0 | 0.04 | 1.89 | 0.12 | 79 | 1008.2 |
| 20260831095526 | 65 | 224 | 8.0 | 20.0 | 0.00 | 2.36 | 0.11 | 78 | 1008.2 |
| 20260831095014 | 66 | 274 | 9.0 | 20.0 | 0.00 | 2.36 | 0.11 | 76 | 1008.1 |
| 20260831094523 | 67 | 251 | 12.0 | 27.0 | 0.00 | 2.36 | 0.11 | 74 | 1008.1 |
| 20260831094030 | 67 | 262 | 13.0 | 27.0 | 0.00 | 2.36 | 0.11 | 72 | 1008.2 |
| 20260831093519 | 68 | 236 | 15.0 | 23.0 | 0.00 | 2.36 | 0.11 | 72 | 1007.9 |
| 20260831093042 | 68 | 188 | 9.0 | 19.0 | 0.00 | 2.36 | 0.11 | 74 | 1007.8 |
| 20260831092530 | 67 | 215 | 12.0 | 24.0 | 0.00 | 2.36 | 0.11 | 75 | 1007.8 |
| 20260831092018 | 67 | 209 | 12.0 | 25.0 | 0.00 | 2.36 | 0.11 | 75 | 1007.6 |
| 20260831091550 | 66 | 207 | 13.0 | 26.0 | 0.00 | 2.36 | 0.11 | 77 | 1007.6 |
| 20260831091017 | 66 | 200 | 13.0 | 26.0 | 0.00 | 2.36 | 0.11 | 79 | 1007.6 |
| 20260831090522 | 65 | 177 | 12.0 | 29.0 | 0.00 | 2.36 | 0.11 | 82 | 1007.4 |
| 20260831090023 | 66 | 199 | 13.0 | 22.0 | 0.00 | 2.36 | 0.11 | 84 | 1007.4 |
| 20260831085529 | 65 | 134 | 13.0 | 27.0 | 0.00 | 2.76 | 0.11 | 85 | 1007.4 |
| 20260831085016 | 65 | 169 | 15.0 | 28.0 | 0.00 | 2.76 | 0.11 | 86 | 1007.3 |
| 20260831084521 | 64 | 189 | 12.0 | 28.0 | 0.00 | 2.76 | 0.11 | 87 | 1007.0 |
| 20260831084053 | 64 | 178 | 10.0 | 29.0 | 0.00 | 2.76 | 0.11 | 88 | 1007.2 |
| 20260831083521 | 64 | 165 | 13.0 | 26.0 | 0.08 | 2.76 | 0.11 | 90 | 1007.0 |
| 20260831083028 | 64 | 196 | 13.0 | 29.0 | 0.12 | 2.76 | 0.11 | 90 | 1007.1 |
| 20260831082514 | 64 | 188 | 14.0 | 29.0 | 0.12 | 2.76 | 0.11 | 91 | 1007.1 |
| 20260831082019 | 64 | 218 | 12.0 | 31.0 | 0.12 | 2.76 | 0.11 | 91 | 1006.9 |
| 20260831081526 | 63 | 182 | 12.0 | 31.0 | 0.12 | 2.76 | 0.11 | 92 | 1007.0 |
| 20260831081033 | 63 | 169 | 12.0 | 28.0 | 0.12 | 2.76 | 0.11 | 93 | 1006.9 |
| 20260831080522 | 62 | 213 | 11.0 | 22.0 | 0.12 | 2.76 | 0.11 | 93 | 1006.9 |
| 20260831080024 | 62 | 163 | 12.0 | 22.0 | 0.12 | 2.76 | 0.11 | 93 | 1007.0 |
| 20260831075527 | 62 | 116 | 9.0 | 25.0 | 0.12 | 2.80 | 0.11 | 93 | 1006.9 |
| 20260831075030 | 62 | 172 | 9.0 | 23.0 | 0.12 | 2.80 | 0.11 | 93 | 1006.8 |
| 20260831074519 | 62 | 126 | 8.0 | 21.0 | 0.12 | 2.80 | 0.11 | 93 | 1006.7 |
| 20260831074022 | 62 | 158 | 12.0 | 25.0 | 0.12 | 2.80 | 0.11 | 93 | 1006.9 |
| 20260831073550 | 62 | 146 | 12.0 | 26.0 | 0.04 | 2.72 | 0.09 | 93 | 1006.8 |
| 20260831073018 | 61 | 161 | 12.0 | 26.0 | 0.04 | 2.68 | 0.09 | 93 | 1006.7 |
| 20260831072528 | 61 | 164 | 12.0 | 25.0 | 0.08 | 2.68 | 0.09 | 93 | 1006.7 |
| 20260831072015 | 61 | 130 | 9.0 | 21.0 | 0.08 | 2.68 | 0.09 | 93 | 1006.6 |
| 20260831071524 | 61 | 132 | 8.0 | 22.0 | 0.08 | 2.68 | 0.09 | 93 | 1006.7 |
| 20260831071051 | 61 | 103 | 10.0 | 22.0 | 0.08 | 2.68 | 0.09 | 93 | 1006.6 |
| 20260831070519 | 61 | 128 | 11.0 | 22.0 | 0.08 | 2.68 | 0.09 | 93 | 1006.6 |
| 20260831070021 | 61 | 157 | 11.0 | 27.0 | 0.08 | 2.68 | 0.09 | 93 | 1006.8 |
| 20260831065528 | 61 | 163 | 12.0 | 27.0 | 0.08 | 2.72 | 0.09 | 93 | 1006.7 |
| 20260831065030 | 61 | 153 | 8.0 | 16.0 | 0.08 | 2.72 | 0.09 | 94 | 1006.9 |
| 20260831064539 | 61 | 108 | 9.0 | 26.0 | 0.08 | 2.72 | 0.09 | 93 | 1006.9 |
| 20260831064019 | 61 | 185 | 10.0 | 25.0 | 0.08 | 2.72 | 0.09 | 93 | 1007.0 |
| 20260831063549 | 61 | 169 | 11.0 | 20.0 | 0.08 | 2.72 | 0.09 | 93 | 1006.8 |
| 20260831063054 | 61 | 192 | 9.0 | 17.0 | 0.08 | 2.68 | 0.08 | 93 | 1006.7 |
| 20260831062522 | 61 | 135 | 9.0 | 17.0 | 0.12 | 2.64 | 0.07 | 93 | 1006.8 |
| 20260831062027 | 61 | 154 | 7.0 | 17.0 | 0.16 | 2.64 | 0.07 | 93 | 1007.0 |
| 20260831061515 | 61 | 111 | 6.0 | 17.0 | 0.20 | 2.64 | 0.07 | 93 | 1007.1 |
| 20260831061020 | 61 | 178 | 8.0 | 22.0 | 0.28 | 2.64 | 0.07 | 93 | 1007.2 |
| 20260831060526 | 61 | 134 | 10.0 | 22.0 | 0.31 | 2.64 | 0.07 | 93 | 1007.2 |
| 20260831060052 | 61 | 158 | 6.0 | 17.0 | 0.35 | 2.64 | 0.07 | 93 | 1007.3 |
| 20260831055520 | 61 | 155 | 9.0 | 17.0 | 0.35 | 3.07 | 0.07 | 93 | 1007.4 |
| 20260831055028 | 61 | 170 | 7.0 | 11.0 | 0.35 | 3.07 | 0.07 | 92 | 1007.3 |
| 20260831054517 | 61 | 106 | 7.0 | 12.0 | 0.35 | 3.07 | 0.07 | 92 | 1007.0 |
| 20260831054021 | 62 | 140 | 5.0 | 12.0 | 0.35 | 3.07 | 0.07 | 92 | 1007.0 |
| 20260831053530 | 62 | 184 | 5.0 | 15.0 | 0.31 | 3.03 | 0.06 | 92 | 1006.9 |
| 20260831053018 | 62 | 190 | 8.0 | 15.0 | 0.28 | 2.99 | 0.06 | 92 | 1007.0 |
| 20260831052547 | 62 | 129 | 7.0 | 17.0 | 0.24 | 2.95 | 0.05 | 92 | 1006.9 |
| 20260831052029 | 62 | 174 | 9.0 | 16.0 | 0.20 | 2.91 | 0.04 | 92 | 1006.9 |
| 20260831051539 | 62 | 150 | 9.0 | 16.0 | 0.16 | 2.87 | 0.03 | 91 | 1007.0 |
| 20260831051025 | 62 | 162 | 8.0 | 13.0 | 0.08 | 2.80 | 0.02 | 92 | 1006.9 |
| 20260831050513 | 62 | 163 | 6.0 | 13.0 | 0.04 | 2.76 | 0.01 | 91 | 1006.9 |
| 20260831050016 | 62 | 120 | 5.0 | 18.0 | 0.00 | 2.72 | 0.00 | 91 | 1007.0 |
| 20260831045521 | 62 | 168 | 10.0 | 20.0 | 0.00 | 2.80 | 0.00 | 93 | 1007.1 |
| 20260831045052 | 62 | 110 | 9.0 | 19.0 | 0.00 | 2.80 | 0.00 | 91 | 1007.2 |
| 20260831044521 | 62 | 186 | 7.0 | 14.0 | 0.00 | 2.80 | 0.00 | 91 | 1007.2 |
| 20260831044029 | 62 | 130 | 5.0 | 14.0 | 0.00 | 2.80 | 0.00 | 91 | 1007.1 |
| 20260831043513 | 62 | 170 | 7.0 | 16.0 | 0.00 | 2.80 | 0.00 | 91 | 1007.1 |
| 20260831043021 | 62 | 162 | 8.0 | 16.0 | 0.00 | 2.80 | 0.00 | 91 | 1007.1 |
| 20260831042530 | 62 | 136 | 6.0 | 16.0 | 0.00 | 2.80 | 0.00 | 91 | 1007.0 |
| 20260831042018 | 62 | 150 | 7.0 | 16.0 | 0.00 | 2.80 | 0.00 | 91 | 1006.9 |
| 20260831041527 | 62 | 100 | 4.0 | 16.0 | 0.00 | 2.80 | 0.00 | 91 | 1006.9 |
| 20260831041027 | 62 | 134 | 6.0 | 12.0 | 0.00 | 2.80 | 0.00 | 91 | 1007.2 |
| 20260831040517 | 62 | 164 | 5.0 | 11.0 | 0.00 | 2.80 | 0.00 | 91 | 1007.1 |
| 20260831040020 | 62 | 114 | 4.0 | 16.0 | 0.00 | 2.80 | 0.00 | 91 | 1007.0 |
| 20260831035530 | 62 | 138 | 5.0 | 16.0 | 0.00 | 2.80 | 0.00 | 91 | 1007.1 |
| 20260831035017 | 63 | 166 | 6.0 | 12.0 | 0.00 | 2.80 | 0.00 | 91 | 1007.1 |
| 20260831034521 | 63 | 135 | 5.0 | 15.0 | 0.00 | 2.80 | 0.00 | 91 | 1007.0 |
| 20260831034029 | 63 | 123 | 7.0 | 15.0 | 0.00 | 2.80 | 0.00 | 91 | 1007.1 |
| 20260831033538 | 63 | 173 | 9.0 | 16.0 | 0.00 | 2.80 | 0.00 | 91 | 1007.1 |
| 20260831033023 | 63 | 148 | 8.0 | 14.0 | 0.00 | 2.80 | 0.00 | 90 | 1007.3 |
| 20260831032528 | 63 | 102 | 6.0 | 12.0 | 0.00 | 2.80 | 0.00 | 91 | 1007.2 |
| 20260831032017 | 63 | 134 | 5.0 | 14.0 | 0.00 | 2.80 | 0.00 | 91 | 1007.2 |
| 20260831031527 | 63 | 161 | 7.0 | 14.0 | 0.00 | 2.80 | 0.00 | 91 | 1007.3 |
| 20260831031016 | 63 | 186 | 7.0 | 18.0 | 0.00 | 2.80 | 0.00 | 91 | 1007.3 |
| 20260831030524 | 63 | 163 | 8.0 | 23.0 | 0.00 | 2.80 | 0.00 | 91 | 1007.4 |
| 20260831030023 | 63 | 141 | 12.0 | 23.0 | 0.00 | 2.80 | 0.00 | 91 | 1007.5 |
| 20260831025532 | 63 | 204 | 8.0 | 21.0 | 0.00 | 2.80 | 0.00 | 91 | 1007.5 |
| 20260831025040 | 63 | 136 | 11.0 | 21.0 | 0.00 | 2.80 | 0.00 | 91 | 1007.7 |
| 20260831024528 | 63 | 114 | 8.0 | 15.0 | 0.00 | 2.80 | 0.00 | 91 | 1007.6 |
| 20260831024017 | 63 | 166 | 5.0 | 12.0 | 0.00 | 2.80 | 0.00 | 91 | 1007.6 |
| 20260831023521 | 63 | 172 | 8.0 | 12.0 | 0.00 | 2.80 | 0.00 | 91 | 1007.6 |
| 20260831023027 | 63 | 140 | 6.0 | 12.0 | 0.00 | 2.80 | 0.00 | 91 | 1007.6 |
| 20260831022516 | 63 | 223 | 5.0 | 15.0 | 0.00 | 2.80 | 0.00 | 91 | 1007.6 |
| 20260831022024 | 63 | 203 | 7.0 | 15.0 | 0.00 | 2.80 | 0.00 | 91 | 1007.8 |
| 20260831021532 | 63 | 139 | 7.0 | 13.0 | 0.00 | 2.80 | 0.00 | 91 | 1007.6 |
| 20260831021015 | 63 | 150 | 8.0 | 13.0 | 0.00 | 2.80 | 0.00 | 91 | 1007.6 |
| 20260831020521 | 63 | 162 | 5.0 | 19.0 | 0.00 | 2.80 | 0.00 | 92 | 1007.5 |
| 20260831020023 | 63 | 142 | 7.0 | 19.0 | 0.00 | 2.80 | 0.00 | 92 | 1007.5 |
| 20260831015531 | 63 | 136 | 8.0 | 16.0 | 0.00 | 2.80 | 0.00 | 92 | 1007.6 |
| 20260831015019 | 63 | 144 | 7.0 | 14.0 | 0.00 | 2.80 | 0.00 | 92 | 1007.6 |
| 20260831014523 | 63 | 207 | 6.0 | 14.0 | 0.00 | 2.80 | 0.00 | 92 | 1007.7 |
| 20260831014031 | 63 | 175 | 5.0 | 14.0 | 0.00 | 2.80 | 0.00 | 92 | 1007.7 |
| 20260831013520 | 63 | 122 | 4.0 | 12.0 | 0.00 | 2.80 | 0.00 | 92 | 1007.7 |
| 20260831013027 | 63 | 161 | 7.0 | 12.0 | 0.00 | 2.80 | 0.00 | 92 | 1007.7 |
| 20260831012516 | 63 | 163 | 5.0 | 11.0 | 0.00 | 2.80 | 0.00 | 92 | 1007.6 |
| 20260831012021 | 63 | 135 | 5.0 | 11.0 | 0.00 | 2.80 | 0.00 | 92 | 1007.5 |
| 20260831011549 | 63 | 150 | 5.0 | 12.0 | 0.00 | 2.80 | 0.00 | 92 | 1007.5 |
| 20260831011015 | 63 | 111 | 4.0 | 16.0 | 0.00 | 2.80 | 0.00 | 93 | 1007.7 |
| 20260831010525 | 63 | 118 | 7.0 | 16.0 | 0.00 | 2.80 | 0.00 | 93 | 1007.8 |
| 20260831010042 | 63 | 153 | 7.0 | 12.0 | 0.00 | 2.80 | 0.00 | 93 | 1008.0 |
| 20260831005531 | 63 | 135 | 7.0 | 15.0 | 0.00 | 2.83 | 0.00 | 93 | 1007.8 |
| 20260831005020 | 63 | 191 | 6.0 | 15.0 | 0.00 | 2.83 | 0.00 | 93 | 1007.8 |
| 20260831004526 | 63 | 150 | 8.0 | 13.0 | 0.00 | 2.83 | 0.00 | 93 | 1007.9 |
| 20260831004028 | 63 | 117 | 4.0 | 15.0 | 0.00 | 2.83 | 0.00 | 93 | 1008.0 |
| 20260831003517 | 63 | 147 | 7.0 | 15.0 | 0.00 | 2.83 | 0.00 | 93 | 1007.9 |
| 20260831003023 | 63 | 126 | 6.0 | 12.0 | 0.00 | 2.83 | 0.00 | 93 | 1007.8 |
| 20260831002513 | 63 | 99 | 3.0 | 11.0 | 0.00 | 2.83 | 0.00 | 93 | 1007.8 |
| 20260831002020 | 63 | 140 | 5.0 | 11.0 | 0.00 | 2.83 | 0.00 | 93 | 1007.9 |
| 20260831001543 | 63 | 156 | 7.0 | 11.0 | 0.00 | 2.83 | 0.00 | 93 | 1007.9 |
| 20260831001054 | 63 | 90 | 6.0 | 11.0 | 0.00 | 2.83 | 0.00 | 93 | 1007.9 |
| 20260831000542 | 63 | 167 | 3.0 | 9.0 | 0.00 | 2.83 | 0.00 | 93 | 1008.0 |
| 20260831000024 | 62 | 188 | 6.0 | 9.0 | 0.00 | 2.83 | 0.00 | 93 | 1008.0 |
| 20260830235527 | 62 | 174 | 4.0 | 11.0 | 0.00 | 2.91 | 0.00 | 93 | 1008.1 |
| 20260830235015 | 62 | 181 | 4.0 | 12.0 | 0.00 | 2.91 | 0.00 | 93 | 1008.4 |
| 20260830234525 | 62 | 166 | 7.0 | 12.0 | 0.00 | 2.91 | 0.00 | 93 | 1008.4 |
| 20260830234028 | 63 | 173 | 3.0 | 8.0 | 0.00 | 2.91 | 0.00 | 93 | 1008.3 |
| 20260830233517 | 63 | 152 | 2.0 | 7.0 | 0.00 | 2.91 | 0.00 | 93 | 1008.4 |
| 20260830233042 | 63 | 183 | 3.0 | 8.0 | 0.00 | 2.91 | 0.00 | 93 | 1008.5 |
| 20260830232553 | 63 | 149 | 3.0 | 8.0 | 0.00 | 2.91 | 0.00 | 93 | 1008.4 |
| 20260830232041 | 63 | 157 | 4.0 | 8.0 | 0.00 | 2.91 | 0.00 | 93 | 1008.5 |
| 20260830231550 | 63 | 155 | 2.0 | 8.0 | 0.00 | 2.91 | 0.00 | 93 | 1008.4 |
| 20260830231016 | 63 | 153 | 2.0 | 9.0 | 0.00 | 2.91 | 0.00 | 93 | 1008.4 |
| 20260830230544 | 63 | 152 | 3.0 | 10.0 | 0.00 | 2.91 | 0.00 | 93 | 1008.5 |
| 20260830230049 | 63 | 158 | 5.0 | 10.0 | 0.00 | 2.91 | 0.00 | 93 | 1008.6 |
| 20260830225516 | 63 | 178 | 3.0 | 9.0 | 0.00 | 2.91 | 0.00 | 93 | 1008.5 |
| 20260830225020 | 64 | 166 | 4.0 | 10.0 | 0.00 | 2.91 | 0.00 | 93 | 1008.6 |
| 20260830224529 | 64 | 146 | 3.0 | 10.0 | 0.00 | 2.91 | 0.00 | 93 | 1008.7 |
| 20260830224016 | 64 | 175 | 3.0 | 8.0 | 0.00 | 2.91 | 0.00 | 93 | 1008.7 |
| 20260830223525 | 64 | 111 | 4.0 | 12.0 | 0.00 | 2.91 | 0.00 | 93 | 1008.7 |
| 20260830223029 | 64 | 136 | 6.0 | 12.0 | 0.00 | 2.91 | 0.00 | 93 | 1008.8 |
| 20260830222517 | 64 | 149 | 3.0 | 10.0 | 0.00 | 2.91 | 0.00 | 93 | 1008.8 |
| 20260830222052 | 64 | 161 | 5.0 | 10.0 | 0.00 | 2.91 | 0.00 | 93 | 1008.8 |
| 20260830221520 | 64 | 121 | 3.0 | 7.0 | 0.00 | 2.91 | 0.00 | 93 | 1008.8 |
| 20260830221052 | 64 | 116 | 2.0 | 7.0 | 0.00 | 2.91 | 0.00 | 93 | 1008.9 |
| 20260830220516 | 64 | 5 | 2.0 | 7.0 | 0.00 | 2.91 | 0.00 | 93 | 1008.8 |
| 20260830220018 | 63 | 121 | 1.0 | 4.0 | 0.00 | 2.91 | 0.00 | 93 | 1008.9 |
| 20260830215527 | 63 | 121 | 1.0 | 4.0 | 0.00 | 2.99 | 0.58 | 92 | 1008.9 |
| 20260830215016 | 63 | 121 | 1.0 | 4.0 | 0.00 | 2.99 | 0.58 | 92 | 1009.0 |
| 20260830214525 | 63 | 121 | 1.0 | 4.0 | 0.00 | 2.99 | 0.58 | 92 | 1009.0 |
| 20260830214030 | 63 | 121 | 1.0 | 4.0 | 0.00 | 2.99 | 0.58 | 92 | 1009.1 |
| 20260830213518 | 63 | 121 | 1.0 | 5.0 | 0.00 | 2.99 | 0.58 | 92 | 1009.1 |
| 20260830213052 | 63 | 134 | 2.0 | 5.0 | 0.00 | 2.99 | 0.58 | 92 | 1009.2 |
| 20260830212538 | 63 | 135 | 1.0 | 4.0 | 0.00 | 2.99 | 0.58 | 92 | 1009.3 |
| 20260830212022 | 63 | 125 | 1.0 | 5.0 | 0.00 | 2.99 | 0.58 | 91 | 1009.2 |
| 20260830211529 | 63 | 159 | 1.0 | 3.0 | 0.00 | 2.99 | 0.58 | 91 | 1009.2 |
| 20260830211038 | 64 | 159 | 1.0 | 3.0 | 0.00 | 2.99 | 0.58 | 91 | 1009.1 |
| 20260830210525 | 64 | 159 | 1.0 | 5.0 | 0.00 | 2.99 | 0.58 | 91 | 1009.1 |
| 20260830210044 | 64 | 159 | 0.0 | 5.0 | 0.00 | 2.99 | 0.58 | 91 | 1009.1 |
| 20260830205532 | 64 | 159 | 0.0 | 3.0 | 0.04 | 3.19 | 0.58 | 91 | 1009.2 |
| 20260830205021 | 64 | 159 | 1.0 | 3.0 | 0.12 | 3.19 | 0.58 | 91 | 1009.4 |
| 20260830204530 | 64 | 159 | 1.0 | 5.0 | 0.24 | 3.19 | 0.58 | 90 | 1009.5 |
| 20260830204018 | 64 | 159 | 2.0 | 5.0 | 0.59 | 3.19 | 0.58 | 90 | 1009.5 |
| 20260830203523 | 64 | 111 | 1.0 | 3.0 | 1.06 | 3.19 | 0.58 | 90 | 1009.5 |
| 20260830203029 | 64 | 229 | 0.0 | 3.0 | 1.14 | 3.19 | 0.58 | 90 | 1009.6 |
| 20260830202517 | 64 | 229 | 0.0 | 3.0 | 1.26 | 3.19 | 0.58 | 89 | 1009.6 |
| 20260830202050 | 64 | 229 | 0.0 | 6.0 | 1.26 | 3.19 | 0.58 | 89 | 1009.6 |
| 20260830201517 | 64 | 229 | 0.0 | 7.0 | 1.26 | 3.19 | 0.58 | 89 | 1009.7 |
| 20260830201021 | 64 | 154 | 3.0 | 7.0 | 1.26 | 3.19 | 0.58 | 88 | 1009.9 |
| 20260830200528 | 65 | 163 | 2.0 | 5.0 | 1.26 | 3.19 | 0.58 | 88 | 1009.9 |
| 20260830200032 | 65 | 163 | 2.0 | 8.0 | 1.26 | 3.19 | 0.58 | 88 | 1010.0 |
| 20260830195520 | 65 | 179 | 4.0 | 14.0 | 1.18 | 3.86 | 0.57 | 87 | 1010.0 |
| 20260830195023 | 66 | 231 | 8.0 | 16.0 | 1.14 | 3.82 | 0.56 | 86 | 1010.2 |
| 20260830194528 | 67 | 178 | 5.0 | 10.0 | 1.02 | 3.70 | 0.54 | 86 | 1010.2 |
| 20260830194014 | 68 | 169 | 4.0 | 7.0 | 0.55 | 3.23 | 0.44 | 85 | 1009.9 |
| 20260830193523 | 68 | 244 | 2.0 | 5.0 | 0.20 | 2.87 | 0.37 | 84 | 1009.8 |
| 20260830192021 | 68 | 167 | 0.0 | 2.0 | 0.00 | 2.68 | 0.33 | 83 | 1009.6 |
| 20260830191532 | 68 | 167 | 0.0 | 3.0 | 0.00 | 2.68 | 0.33 | 83 | 1009.7 |
| 20260830191020 | 68 | 167 | 1.0 | 3.0 | 0.00 | 2.68 | 0.33 | 83 | 1009.6 |
| 20260830190550 | 68 | 167 | 1.0 | 3.0 | 0.00 | 2.68 | 0.33 | 82 | 1009.7 |
| 20260830190031 | 68 | 167 | 1.0 | 3.0 | 0.00 | 2.68 | 0.33 | 82 | 1009.7 |
| 20260830185520 | 68 | 167 | 2.0 | 6.0 | 0.00 | 4.25 | 0.33 | 82 | 1009.7 |
| 20260830185028 | 68 | 167 | 3.0 | 6.0 | 0.00 | 4.25 | 0.33 | 82 | 1009.7 |
| 20260830184516 | 68 | 162 | 3.0 | 7.0 | 0.00 | 4.25 | 0.33 | 81 | 1009.8 |
| 20260830184022 | 68 | 166 | 3.0 | 7.0 | 0.00 | 4.25 | 0.33 | 81 | 1009.8 |
| 20260830183530 | 68 | 153 | 2.0 | 7.0 | 0.00 | 4.25 | 0.33 | 81 | 1009.7 |
| 20260830183019 | 69 | 168 | 3.0 | 6.0 | 0.00 | 4.25 | 0.33 | 81 | 1009.8 |
| 20260830182546 | 69 | 184 | 3.0 | 6.0 | 0.00 | 4.25 | 0.33 | 81 | 1009.8 |
| 20260830182027 | 69 | 205 | 2.0 | 6.0 | 0.00 | 4.25 | 0.33 | 80 | 1009.9 |
| 20260830181518 | 69 | 175 | 4.0 | 7.0 | 0.00 | 4.25 | 0.33 | 80 | 1010.1 |
| 20260830181052 | 69 | 213 | 3.0 | 6.0 | 0.00 | 4.25 | 0.33 | 80 | 1010.1 |
| 20260830180540 | 69 | 180 | 3.0 | 4.0 | 0.00 | 4.25 | 0.33 | 80 | 1010.0 |
| 20260830180017 | 69 | 180 | 1.0 | 5.0 | 0.00 | 4.25 | 0.33 | 79 | 1010.0 |
| 20260830175525 | 69 | 180 | 3.0 | 7.0 | 0.00 | 4.33 | 0.33 | 79 | 1010.1 |
| 20260830175014 | 70 | 165 | 1.0 | 6.0 | 0.00 | 4.33 | 0.33 | 79 | 1010.1 |
| 20260830174525 | 70 | 165 | 3.0 | 6.0 | 0.00 | 4.33 | 0.33 | 78 | 1010.1 |
| 20260830174031 | 70 | 153 | 1.0 | 6.0 | 0.00 | 4.33 | 0.33 | 78 | 1010.1 |
| 20260830173537 | 70 | 153 | 1.0 | 3.0 | 0.00 | 4.33 | 0.33 | 78 | 1010.2 |
| 20260830173044 | 70 | 153 | 1.0 | 5.0 | 0.00 | 4.33 | 0.33 | 78 | 1010.1 |
| 20260830172530 | 70 | 153 | 1.0 | 5.0 | 0.00 | 4.33 | 0.33 | 77 | 1010.2 |
| 20260830172016 | 70 | 153 | 2.0 | 8.0 | 0.00 | 4.33 | 0.33 | 77 | 1010.3 |
| 20260830171521 | 70 | 132 | 3.0 | 9.0 | 0.00 | 4.33 | 0.33 | 76 | 1010.3 |
| 20260830171028 | 70 | 142 | 4.0 | 9.0 | 0.00 | 4.33 | 0.33 | 76 | 1010.4 |
| 20260830170531 | 71 | 223 | 2.0 | 8.0 | 0.00 | 4.33 | 0.33 | 76 | 1010.4 |
| 20260830170031 | 71 | 123 | 3.0 | 7.0 | 0.00 | 4.33 | 0.33 | 75 | 1010.4 |
| 20260830165515 | 71 | 180 | 4.0 | 7.0 | 0.00 | 4.41 | 0.33 | 74 | 1010.3 |
| 20260830165017 | 71 | 168 | 3.0 | 14.0 | 0.00 | 4.41 | 0.33 | 74 | 1010.4 |
| 20260830164525 | 71 | 220 | 4.0 | 14.0 | 0.00 | 4.41 | 0.33 | 74 | 1010.5 |
| 20260830164032 | 71 | 260 | 6.0 | 8.0 | 0.00 | 4.41 | 0.33 | 74 | 1010.5 |
| 20260830163521 | 71 | 184 | 4.0 | 10.0 | 0.00 | 4.41 | 0.33 | 75 | 1010.5 |
| 20260830163049 | 70 | 158 | 3.0 | 10.0 | 0.00 | 4.41 | 0.33 | 75 | 1010.4 |
| 20260830162517 | 70 | 170 | 5.0 | 10.0 | 0.04 | 4.41 | 0.33 | 75 | 1010.4 |
| 20260830162024 | 70 | 194 | 5.0 | 12.0 | 0.04 | 4.41 | 0.33 | 75 | 1010.4 |
| 20260830161530 | 71 | 188 | 7.0 | 13.0 | 0.04 | 4.41 | 0.33 | 76 | 1010.5 |
| 20260830161019 | 71 | 165 | 2.0 | 7.0 | 0.04 | 4.41 | 0.33 | 77 | 1010.6 |
| 20260830160524 | 70 | 211 | 4.0 | 10.0 | 0.04 | 4.41 | 0.33 | 77 | 1010.6 |
| 20260830160050 | 70 | 175 | 5.0 | 10.0 | 0.04 | 4.41 | 0.33 | 76 | 1010.6 |
| 20260830155536 | 70 | 192 | 6.0 | 10.0 | 0.04 | 4.45 | 0.33 | 76 | 1010.6 |
| 20260830155024 | 70 | 146 | 6.0 | 13.0 | 0.04 | 4.45 | 0.33 | 76 | 1010.7 |
| 20260830154528 | 70 | 210 | 5.0 | 15.0 | 0.04 | 4.45 | 0.33 | 77 | 1010.8 |
| 20260830154015 | 70 | 191 | 6.0 | 10.0 | 0.04 | 4.45 | 0.33 | 77 | 1010.8 |
| 20260830153543 | 70 | 150 | 7.0 | 11.0 | 0.04 | 4.45 | 0.33 | 77 | 1010.8 |
| 20260830153029 | 70 | 160 | 6.0 | 14.0 | 0.04 | 4.45 | 0.33 | 76 | 1010.8 |
| 20260830152518 | 70 | 155 | 7.0 | 15.0 | 0.00 | 4.41 | 0.32 | 76 | 1011.0 |
| 20260830152022 | 70 | 182 | 6.0 | 14.0 | 0.00 | 4.41 | 0.32 | 76 | 1011.0 |
| 20260830151530 | 70 | 260 | 7.0 | 14.0 | 0.00 | 4.41 | 0.32 | 76 | 1011.0 |
| 20260830151018 | 70 | 187 | 3.0 | 18.0 | 0.00 | 4.41 | 0.32 | 76 | 1011.1 |
| 20260830150527 | 70 | 200 | 9.0 | 18.0 | 0.00 | 4.41 | 0.32 | 75 | 1011.1 |
| 20260830150049 | 70 | 231 | 7.0 | 10.0 | 0.00 | 4.41 | 0.32 | 76 | 1011.0 |
| 20260830145516 | 70 | 191 | 6.0 | 14.0 | 0.00 | 4.45 | 0.32 | 76 | 1011.2 |
| 20260830145024 | 70 | 189 | 8.0 | 15.0 | 0.00 | 4.45 | 0.32 | 76 | 1011.2 |
| 20260830144513 | 70 | 167 | 5.0 | 12.0 | 0.00 | 4.45 | 0.32 | 77 | 1011.2 |
| 20260830144041 | 70 | 221 | 8.0 | 12.0 | 0.00 | 4.45 | 0.32 | 77 | 1011.2 |
| 20260830143525 | 70 | 190 | 7.0 | 12.0 | 0.00 | 4.45 | 0.32 | 77 | 1011.2 |
| 20260830143035 | 70 | 123 | 6.0 | 12.0 | 0.00 | 4.45 | 0.32 | 77 | 1011.2 |
| 20260830142523 | 70 | 152 | 5.0 | 15.0 | 0.00 | 4.45 | 0.32 | 76 | 1011.3 |
| 20260830142028 | 70 | 183 | 9.0 | 15.0 | 0.00 | 4.45 | 0.32 | 76 | 1011.3 |
| 20260830141518 | 70 | 199 | 7.0 | 15.0 | 0.00 | 4.45 | 0.32 | 76 | 1011.2 |
| 20260830141020 | 70 | 173 | 7.0 | 17.0 | 0.00 | 4.45 | 0.32 | 76 | 1011.2 |
| 20260830140530 | 70 | 262 | 6.0 | 16.0 | 0.00 | 4.45 | 0.32 | 76 | 1011.2 |
| 20260830140032 | 70 | 161 | 7.0 | 16.0 | 0.00 | 4.45 | 0.32 | 76 | 1011.2 |
| 20260830135542 | 70 | 205 | 5.0 | 15.0 | 0.00 | 4.45 | 0.32 | 76 | 1011.2 |
| 20260830135025 | 70 | 186 | 9.0 | 15.0 | 0.00 | 4.45 | 0.32 | 76 | 1011.3 |
| 20260830134514 | 70 | 206 | 9.0 | 13.0 | 0.00 | 4.45 | 0.32 | 76 | 1011.2 |
| 20260830134020 | 70 | 205 | 7.0 | 13.0 | 0.00 | 4.45 | 0.32 | 77 | 1011.2 |
| 20260830133529 | 70 | 203 | 7.0 | 15.0 | 0.00 | 4.45 | 0.32 | 77 | 1011.2 |
| 20260830133017 | 70 | 265 | 6.0 | 15.0 | 0.00 | 4.45 | 0.32 | 77 | 1011.3 |
| 20260830132543 | 70 | 236 | 5.0 | 17.0 | 0.00 | 4.45 | 0.32 | 79 | 1011.3 |
| 20260830132029 | 69 | 165 | 9.0 | 17.0 | 0.00 | 4.45 | 0.32 | 80 | 1011.3 |
| 20260830131518 | 69 | 178 | 8.0 | 17.0 | 0.00 | 4.45 | 0.32 | 82 | 1011.2 |
| 20260830131024 | 69 | 216 | 7.0 | 14.0 | 0.00 | 4.45 | 0.32 | 83 | 1011.3 |
| 20260830130515 | 68 | 267 | 5.0 | 12.0 | 0.00 | 4.45 | 0.32 | 82 | 1011.3 |
| 20260830130030 | 68 | 254 | 6.0 | 11.0 | 0.00 | 4.45 | 0.32 | 82 | 1011.2 |
| 20260830125519 | 68 | 240 | 5.0 | 12.0 | 0.00 | 4.45 | 0.32 | 83 | 1011.2 |
| 20260830125052 | 69 | 232 | 7.0 | 12.0 | 0.00 | 4.45 | 0.32 | 83 | 1011.2 |
| 20260830124541 | 68 | 210 | 5.0 | 17.0 | 0.00 | 4.45 | 0.32 | 83 | 1011.2 |
| 20260830124022 | 68 | 163 | 8.0 | 17.0 | 0.00 | 4.45 | 0.32 | 82 | 1011.2 |
| 20260830123528 | 69 | 179 | 11.0 | 17.0 | 0.00 | 4.45 | 0.32 | 82 | 1011.3 |
| 20260830123035 | 68 | 236 | 9.0 | 15.0 | 0.00 | 4.45 | 0.32 | 83 | 1011.1 |
| 20260830122524 | 68 | 224 | 8.0 | 14.0 | 0.00 | 4.45 | 0.32 | 86 | 1011.1 |
| 20260830122052 | 68 | 246 | 7.0 | 12.0 | 0.00 | 4.45 | 0.32 | 87 | 1011.1 |
| 20260830121519 | 68 | 253 | 5.0 | 13.0 | 0.00 | 4.45 | 0.32 | 88 | 1011.1 |
| 20260830121046 | 68 | 244 | 6.0 | 11.0 | 0.00 | 4.45 | 0.32 | 88 | 1011.0 |
| 20260830120513 | 68 | 216 | 5.0 | 10.0 | 0.00 | 4.45 | 0.32 | 88 | 1011.0 |
| 20260830120032 | 68 | 229 | 7.0 | 15.0 | 0.00 | 4.45 | 0.32 | 88 | 1011.0 |
| 20260830115522 | 67 | 246 | 8.0 | 15.0 | 0.00 | 4.45 | 0.32 | 88 | 1010.9 |
| 20260830115030 | 67 | 262 | 9.0 | 14.0 | 0.00 | 4.45 | 0.32 | 88 | 1010.9 |
| 20260830114538 | 67 | 269 | 9.0 | 14.0 | 0.00 | 4.45 | 0.32 | 89 | 1010.9 |
| 20260830114025 | 67 | 259 | 9.0 | 14.0 | 0.00 | 4.45 | 0.32 | 90 | 1010.8 |